TimeEDT,TemperatureF,Dew PointF,Humidity,Sea Level PressureIn,VisibilityMPH,Wind Direction,Wind SpeedMPH,Gust SpeedMPH,PrecipitationIn,Events,Conditions,WindDirDegrees,DateUTC
1:54 AM,64.0,54.0,70,30.03,10.0,SSW,4.6,-,N/A,,Mostly Cloudy,200,2012-10-14 05:54:00
2:54 AM,64.0,54.0,70,30.02,10.0,SSW,6.9,-,N/A,,Mostly Cloudy,200,2012-10-14 06:54:00
3:54 AM,64.0,55.0,73,30.01,10.0,South,8.1,-,N/A,,Mostly Cloudy,180,2012-10-14 07:54:00
4:54 AM,63.0,55.0,75,30.01,10.0,South,5.8,-,N/A,,Mostly Cloudy,170,2012-10-14 08:54:00
5:54 AM,63.0,55.0,75,30.02,10.0,South,5.8,-,N/A,,Overcast,170,2012-10-14 09:54:00
6:54 AM,63.0,55.0,75,30.01,10.0,South,8.1,-,N/A,,Mostly Cloudy,180,2012-10-14 10:54:00
7:54 AM,62.1,54.0,75,30.01,10.0,South,8.1,-,N/A,,Overcast,170,2012-10-14 11:54:00
8:54 AM,63.0,55.0,75,30.01,10.0,South,6.9,-,N/A,,Overcast,190,2012-10-14 12:54:00
9:54 AM,64.9,54.0,68,29.99,10.0,South,11.5,-,N/A,,Overcast,180,2012-10-14 13:54:00
10:54 AM,68.0,55.0,63,29.96,10.0,SSW,12.7,18.4,N/A,,Mostly Cloudy,200,2012-10-14 14:54:00
11:54 AM,71.1,55.9,59,29.92,10.0,SSW,17.3,26.5,N/A,,Partly Cloudy,210,2012-10-14 15:54:00
12:54 PM,73.0,55.9,55,29.88,10.0,SSW,21.9,28.8,N/A,,Clear,200,2012-10-14 16:54:00
1:54 PM,75.9,57.0,52,29.84,10.0,South,17.3,31.1,N/A,,Mostly Cloudy,190,2012-10-14 17:54:00
2:54 PM,75.9,55.9,50,29.81,10.0,SSW,13.8,25.3,N/A,,Overcast,200,2012-10-14 18:54:00
4:54 PM,69.1,59.0,70,29.78,5.0,SSW,12.7,21.9,0.04,Rain,Light Rain,200,2012-10-14 20:54:00
5:54 PM,71.1,57.9,63,29.74,10.0,SSW,9.2,-,0.00,Rain,Light Rain,200,2012-10-14 21:54:00
6:54 PM,71.1,57.0,61,29.72,10.0,South,16.1,24.2,0.00,,Mostly Cloudy,180,2012-10-14 22:54:00
7:54 PM,71.1,57.0,61,29.70,10.0,South,15.0,26.5,N/A,,Overcast,190,2012-10-14 23:54:00
8:54 PM,72.0,57.0,59,29.68,10.0,SSW,19.6,34.5,0.00,,Overcast,200,2012-10-15 00:54:00
9:54 PM,68.0,57.9,70,29.70,10.0,SSW,17.3,32.2,0.00,,Mostly Cloudy,210,2012-10-15 01:54:00
10:54 PM,68.0,57.9,70,29.69,10.0,SSW,13.8,23.0,N/A,,Overcast,200,2012-10-15 02:54:00
11:54 PM,69.1,57.9,68,29.68,10.0,SSW,21.9,35.7,N/A,,Mostly Cloudy,210,2012-10-15 03:54:00